Year,Month,Day,Hour,Minute,Value (Times are PST for temperature in C)
2016,08,19,00,00,22.00
2016,08,19,00,01,21.90
2016,08,19,00,02,21.90
2016,08,19,00,03,21.90
2016,08,19,00,04,21.90
2016,08,19,00,05,21.90
2016,08,19,00,06,21.90
2016,08,19,00,07,22.00
2016,08,19,00,08,22.00
2016,08,19,00,09,22.00
2016,08,19,00,10,22.10
2016,08,19,00,11,22.10
2016,08,19,00,12,22.10
2016,08,19,00,13,22.10
2016,08,19,00,14,22.10
2016,08,19,00,15,22.10
2016,08,19,00,16,22.20
2016,08,19,00,17,22.30
2016,08,19,00,18,22.30
2016,08,19,00,19,22.40
2016,08,19,00,20,22.40
2016,08,19,00,21,22.40
2016,08,19,00,22,22.50
2016,08,19,00,23,22.50
2016,08,19,00,24,22.60
2016,08,19,00,25,22.70
2016,08,19,00,26,22.80
2016,08,19,00,27,22.90
2016,08,19,00,28,23.00
2016,08,19,00,29,23.10
2016,08,19,00,30,23.10
2016,08,19,00,31,23.10
2016,08,19,00,32,23.20
2016,08,19,00,33,23.10
2016,08,19,00,34,23.10
2016,08,19,00,35,23.10
2016,08,19,00,36,23.00
2016,08,19,00,37,23.00
2016,08,19,00,38,23.00
2016,08,19,00,39,22.90
2016,08,19,00,40,22.80
2016,08,19,00,41,22.80
2016,08,19,00,42,22.70
2016,08,19,00,43,22.80
2016,08,19,00,44,22.90
2016,08,19,00,45,23.10
2016,08,19,00,46,23.20
2016,08,19,00,47,23.20
2016,08,19,00,48,23.20
2016,08,19,00,49,23.20
2016,08,19,00,50,23.10
2016,08,19,00,51,22.90
2016,08,19,00,52,22.90
2016,08,19,00,53,22.80
2016,08,19,00,54,22.80
2016,08,19,00,55,22.70
2016,08,19,00,56,22.70
2016,08,19,00,57,22.70
2016,08,19,00,58,22.60
2016,08,19,00,59,22.60
2016,08,19,01,00,22.60
2016,08,19,01,01,22.60
2016,08,19,01,02,22.50
2016,08,19,01,03,22.40
2016,08,19,01,04,22.40
2016,08,19,01,05,22.40
2016,08,19,01,06,22.40
2016,08,19,01,07,22.40
2016,08,19,01,08,22.40
2016,08,19,01,09,22.40
2016,08,19,01,10,22.50
2016,08,19,01,11,22.50
2016,08,19,01,12,22.60
2016,08,19,01,13,22.60
2016,08,19,01,14,22.60
2016,08,19,01,15,22.60
2016,08,19,01,16,22.60
2016,08,19,01,17,22.80
2016,08,19,01,18,23.10
2016,08,19,01,19,23.30
2016,08,19,01,20,23.40
2016,08,19,01,21,23.50
2016,08,19,01,22,23.60
2016,08,19,01,23,23.80
2016,08,19,01,24,23.80
2016,08,19,01,25,23.90
2016,08,19,01,26,24.00
2016,08,19,01,27,24.10
2016,08,19,01,28,24.10
2016,08,19,01,29,24.10
2016,08,19,01,30,24.10
2016,08,19,01,31,24.10
2016,08,19,01,32,24.10
2016,08,19,01,33,24.10
2016,08,19,01,34,24.10
2016,08,19,01,35,24.10
2016,08,19,01,36,24.20
2016,08,19,01,37,24.20
2016,08,19,01,38,24.20
2016,08,19,01,39,24.20
2016,08,19,01,40,24.20
2016,08,19,01,41,24.20
2016,08,19,01,42,24.20
2016,08,19,01,43,24.20
2016,08,19,01,44,24.10
2016,08,19,01,45,24.00
2016,08,19,01,46,24.00
2016,08,19,01,47,23.90
2016,08,19,01,48,23.90
2016,08,19,01,49,23.90
2016,08,19,01,50,23.90
2016,08,19,01,51,23.90
2016,08,19,01,52,24.00
2016,08,19,01,53,24.20
2016,08,19,01,54,24.30
2016,08,19,01,55,24.50
2016,08,19,01,56,24.60
2016,08,19,01,57,24.70
2016,08,19,01,58,24.80
2016,08,19,01,59,24.80
2016,08,19,02,00,24.80
2016,08,19,02,01,24.90
2016,08,19,02,02,25.00
2016,08,19,02,03,25.00
2016,08,19,02,04,25.10
2016,08,19,02,05,25.30
2016,08,19,02,06,25.30
2016,08,19,02,07,25.30
2016,08,19,02,08,25.40
2016,08,19,02,09,25.40
2016,08,19,02,10,25.50
2016,08,19,02,11,25.50
2016,08,19,02,12,25.50
2016,08,19,02,13,25.50
2016,08,19,02,14,25.50
2016,08,19,02,15,25.50
2016,08,19,02,16,25.50
2016,08,19,02,17,25.50
2016,08,19,02,18,25.40
2016,08,19,02,19,25.40
2016,08,19,02,20,25.40
2016,08,19,02,21,25.40
2016,08,19,02,22,25.40
2016,08,19,02,23,25.30
2016,08,19,02,24,25.30
2016,08,19,02,25,25.30
2016,08,19,02,26,25.30
2016,08,19,02,27,25.30
2016,08,19,02,28,25.30
2016,08,19,02,29,25.30
2016,08,19,02,30,25.30
2016,08,19,02,31,25.30
2016,08,19,02,32,25.30
2016,08,19,02,33,25.30
2016,08,19,02,34,25.30
2016,08,19,02,35,25.30
2016,08,19,02,36,25.40
2016,08,19,02,37,25.40
2016,08,19,02,38,25.40
2016,08,19,02,39,25.50
2016,08,19,02,40,25.50
2016,08,19,02,41,25.40
2016,08,19,02,42,25.40
2016,08,19,02,43,25.40
2016,08,19,02,44,25.40
2016,08,19,02,45,25.40
2016,08,19,02,46,25.50
2016,08,19,02,47,25.50
2016,08,19,02,48,25.50
2016,08,19,02,49,25.50
2016,08,19,02,50,25.50
2016,08,19,02,51,25.50
2016,08,19,02,52,25.50
2016,08,19,02,53,25.50
2016,08,19,02,54,25.50
2016,08,19,02,55,25.50
2016,08,19,02,56,25.40
2016,08,19,02,57,25.40
2016,08,19,02,58,25.40
2016,08,19,02,59,25.40
2016,08,19,03,00,25.40
2016,08,19,03,01,25.40
2016,08,19,03,02,25.40
2016,08,19,03,03,25.40
2016,08,19,03,04,25.40
2016,08,19,03,05,25.40
2016,08,19,03,06,25.40
2016,08,19,03,07,25.40
2016,08,19,03,08,25.30
2016,08,19,03,09,25.30
2016,08,19,03,10,25.30
2016,08,19,03,11,25.20
2016,08,19,03,12,25.20
2016,08,19,03,13,25.10
2016,08,19,03,14,25.10
2016,08,19,03,15,25.00
2016,08,19,03,16,25.00
2016,08,19,03,17,25.00
2016,08,19,03,18,24.90
2016,08,19,03,19,24.90
2016,08,19,03,20,24.90
2016,08,19,03,21,24.80
2016,08,19,03,22,24.80
2016,08,19,03,23,24.80
2016,08,19,03,24,24.70
2016,08,19,03,25,24.30
2016,08,19,03,26,23.60
2016,08,19,03,27,23.00
2016,08,19,03,28,22.30
2016,08,19,03,29,21.60
2016,08,19,03,30,21.10
2016,08,19,03,31,20.80
2016,08,19,03,32,20.50
2016,08,19,03,33,20.30
2016,08,19,03,34,20.00
2016,08,19,03,35,19.90
2016,08,19,03,36,19.70
2016,08,19,03,37,19.60
2016,08,19,03,38,19.50
2016,08,19,03,39,19.40
2016,08,19,03,40,19.30
2016,08,19,03,41,19.30
2016,08,19,03,42,19.40
2016,08,19,03,43,19.50
2016,08,19,03,44,19.60
2016,08,19,03,45,19.60
2016,08,19,03,46,19.70
2016,08,19,03,47,19.80
2016,08,19,03,48,19.90
2016,08,19,03,49,19.90
2016,08,19,03,50,20.10
2016,08,19,03,51,20.20
2016,08,19,03,52,20.30
2016,08,19,03,53,20.40
2016,08,19,03,54,20.40
2016,08,19,03,55,20.50
2016,08,19,03,56,20.60
2016,08,19,03,57,20.70
2016,08,19,03,58,20.80
2016,08,19,03,59,20.90
2016,08,19,04,00,21.00
2016,08,19,04,01,21.20
2016,08,19,04,02,21.30
2016,08,19,04,03,21.50
2016,08,19,04,04,21.70
2016,08,19,04,05,21.90
2016,08,19,04,06,22.10
2016,08,19,04,07,22.20
2016,08,19,04,08,22.30
2016,08,19,04,09,22.40
2016,08,19,04,10,22.50
2016,08,19,04,11,22.60
2016,08,19,04,12,22.60
2016,08,19,04,13,22.70
2016,08,19,04,14,22.80
2016,08,19,04,15,22.80
2016,08,19,04,16,22.80
2016,08,19,04,17,22.80
2016,08,19,04,18,22.80
2016,08,19,04,19,22.90
2016,08,19,04,20,22.90
2016,08,19,04,21,22.90
2016,08,19,04,22,22.90
2016,08,19,04,23,23.00
2016,08,19,04,24,23.00
2016,08,19,04,25,23.10
2016,08,19,04,26,23.10
2016,08,19,04,27,23.10
2016,08,19,04,28,23.20
2016,08,19,04,29,23.30
2016,08,19,04,30,23.30
2016,08,19,04,31,23.40
2016,08,19,04,32,23.40
2016,08,19,04,33,23.50
2016,08,19,04,34,23.60
2016,08,19,04,35,23.70
2016,08,19,04,36,23.70
2016,08,19,04,37,23.80
2016,08,19,04,38,23.90
2016,08,19,04,39,24.00
2016,08,19,04,40,24.00
2016,08,19,04,41,24.10
2016,08,19,04,42,24.20
2016,08,19,04,43,24.30
2016,08,19,04,44,24.30
2016,08,19,04,45,24.30
2016,08,19,04,46,24.30
2016,08,19,04,47,24.30
2016,08,19,04,48,24.30
2016,08,19,04,49,24.30
2016,08,19,04,50,24.30
2016,08,19,04,51,24.30
2016,08,19,04,52,24.30
2016,08,19,04,53,24.30
2016,08,19,04,54,24.30
2016,08,19,04,55,24.30
2016,08,19,04,56,24.30
2016,08,19,04,57,24.30
2016,08,19,04,58,24.30
2016,08,19,04,59,24.20
2016,08,19,05,00,24.30
2016,08,19,05,01,24.20
2016,08,19,05,02,24.20
2016,08,19,05,03,24.10
2016,08,19,05,04,24.00
2016,08,19,05,05,23.80
2016,08,19,05,06,23.80
2016,08,19,05,07,23.70
2016,08,19,05,08,23.70
2016,08,19,05,09,23.70
2016,08,19,05,10,23.80
2016,08,19,05,11,23.80
2016,08,19,05,12,23.90
2016,08,19,05,13,23.90
2016,08,19,05,14,24.00
2016,08,19,05,15,24.00
2016,08,19,05,16,24.10
2016,08,19,05,17,24.10
2016,08,19,05,18,24.10
2016,08,19,05,19,24.20
2016,08,19,05,20,24.20
2016,08,19,05,21,24.20
2016,08,19,05,22,24.20
2016,08,19,05,23,24.10
2016,08,19,05,24,24.10
2016,08,19,05,25,24.10
2016,08,19,05,26,24.20
2016,08,19,05,27,24.20
2016,08,19,05,28,24.10
2016,08,19,05,29,24.10
2016,08,19,05,30,24.10
2016,08,19,05,31,24.10
2016,08,19,05,32,24.00
2016,08,19,05,33,23.90
2016,08,19,05,34,23.80
2016,08,19,05,35,23.60
2016,08,19,05,36,23.30
2016,08,19,05,37,23.10
2016,08,19,05,38,22.90
2016,08,19,05,39,22.70
2016,08,19,05,40,22.60
2016,08,19,05,41,22.50
2016,08,19,05,42,22.40
2016,08,19,05,43,22.30
2016,08,19,05,44,22.40
2016,08,19,05,45,22.50
2016,08,19,05,46,22.60
2016,08,19,05,47,22.70
2016,08,19,05,48,22.80
2016,08,19,05,49,22.90
2016,08,19,05,50,23.00
2016,08,19,05,51,23.10
2016,08,19,05,52,23.20
2016,08,19,05,53,23.20
2016,08,19,05,54,23.30
2016,08,19,05,55,23.30
2016,08,19,05,56,23.30
2016,08,19,05,57,23.10
2016,08,19,05,58,22.90
2016,08,19,05,59,22.60
2016,08,19,06,00,22.40
2016,08,19,06,01,22.20
2016,08,19,06,02,22.00
2016,08,19,06,03,21.80
2016,08,19,06,04,21.70
2016,08,19,06,05,21.50
2016,08,19,06,06,21.40
2016,08,19,06,07,21.20
2016,08,19,06,08,21.10
2016,08,19,06,09,21.00
2016,08,19,06,10,21.00
2016,08,19,06,11,20.90
2016,08,19,06,12,20.80
2016,08,19,06,13,20.70
2016,08,19,06,14,20.70
2016,08,19,06,15,20.60
2016,08,19,06,16,20.60
2016,08,19,06,17,20.60
2016,08,19,06,18,20.50
2016,08,19,06,19,20.50
2016,08,19,06,20,20.40
2016,08,19,06,21,20.40
2016,08,19,06,22,20.30
2016,08,19,06,23,20.30
2016,08,19,06,24,20.30
2016,08,19,06,25,20.20
2016,08,19,06,26,20.20
2016,08,19,06,27,20.10
2016,08,19,06,28,20.10
2016,08,19,06,29,20.00
2016,08,19,06,30,20.00
2016,08,19,06,31,19.90
2016,08,19,06,32,19.90
2016,08,19,06,33,19.90
2016,08,19,06,34,19.90
2016,08,19,06,35,19.90
2016,08,19,06,36,19.90
2016,08,19,06,37,19.90
2016,08,19,06,38,19.90
2016,08,19,06,39,19.90
2016,08,19,06,40,19.90
2016,08,19,06,41,19.90
2016,08,19,06,42,20.00
2016,08,19,06,43,20.00
2016,08,19,06,44,20.00
2016,08,19,06,45,20.10
2016,08,19,06,46,20.20
2016,08,19,06,47,20.20
2016,08,19,06,48,20.20
2016,08,19,06,49,20.30
2016,08,19,06,50,20.30
2016,08,19,06,51,20.30
2016,08,19,06,52,20.30
2016,08,19,06,53,20.40
2016,08,19,06,54,20.40
2016,08,19,06,55,20.50
2016,08,19,06,56,20.50
2016,08,19,06,57,20.60
2016,08,19,06,58,20.60
2016,08,19,06,59,20.70
2016,08,19,07,00,20.80
2016,08,19,07,01,20.90
2016,08,19,07,02,21.00
2016,08,19,07,03,21.00
2016,08,19,07,04,21.10
2016,08,19,07,05,21.10
2016,08,19,07,06,21.20
2016,08,19,07,07,21.20
2016,08,19,07,08,21.20
2016,08,19,07,09,21.30
2016,08,19,07,10,21.30
2016,08,19,07,11,21.40
2016,08,19,07,12,21.40
2016,08,19,07,13,21.50
2016,08,19,07,14,21.50
2016,08,19,07,15,21.60
2016,08,19,07,16,21.60
2016,08,19,07,17,21.70
2016,08,19,07,18,21.70
2016,08,19,07,19,21.80
2016,08,19,07,20,21.80
2016,08,19,07,21,21.90
2016,08,19,07,22,21.90
2016,08,19,07,23,21.90
2016,08,19,07,24,22.00
2016,08,19,07,25,22.00
2016,08,19,07,26,22.10
2016,08,19,07,27,22.10
2016,08,19,07,28,22.20
2016,08,19,07,29,22.30
2016,08,19,07,30,22.40
2016,08,19,07,31,22.40
2016,08,19,07,32,22.50
2016,08,19,07,33,22.50
2016,08,19,07,34,22.50
2016,08,19,07,35,22.60
2016,08,19,07,36,22.60
2016,08,19,07,37,22.70
2016,08,19,07,38,22.70
2016,08,19,07,39,22.80
2016,08,19,07,40,22.80
2016,08,19,07,41,22.80
2016,08,19,07,42,22.90
2016,08,19,07,43,23.00
2016,08,19,07,44,23.00
2016,08,19,07,45,23.10
2016,08,19,07,46,23.20
2016,08,19,07,47,23.30
2016,08,19,07,48,23.30
2016,08,19,07,49,23.30
2016,08,19,07,50,23.30
2016,08,19,07,51,23.20
2016,08,19,07,52,23.20
2016,08,19,07,53,23.10
2016,08,19,07,54,23.00
2016,08,19,07,55,22.90
2016,08,19,07,56,22.90
2016,08,19,07,57,22.90
2016,08,19,07,58,22.90
2016,08,19,07,59,22.90
2016,08,19,08,00,22.90
2016,08,19,08,01,22.90
2016,08,19,08,02,22.90
2016,08,19,08,03,22.80
2016,08,19,08,04,22.80
2016,08,19,08,05,22.80
2016,08,19,08,06,22.80
2016,08,19,08,07,22.80
2016,08,19,08,08,22.80
2016,08,19,08,09,22.80
2016,08,19,08,10,22.80
2016,08,19,08,11,22.80
2016,08,19,08,12,22.80
2016,08,19,08,13,22.90
2016,08,19,08,14,22.90
2016,08,19,08,15,23.00
2016,08,19,08,16,23.00
2016,08,19,08,17,23.10
2016,08,19,08,18,23.20
2016,08,19,08,19,23.30
2016,08,19,08,20,23.30
2016,08,19,08,21,23.40
2016,08,19,08,22,23.40
2016,08,19,08,23,23.50
2016,08,19,08,24,23.50
2016,08,19,08,25,23.50
2016,08,19,08,26,23.50
2016,08,19,08,27,23.40
2016,08,19,08,28,23.40
2016,08,19,08,29,23.30
2016,08,19,08,30,23.20
2016,08,19,08,31,23.20
2016,08,19,08,32,23.20
2016,08,19,08,33,23.10
2016,08,19,08,34,23.20
2016,08,19,08,35,23.20
2016,08,19,08,36,23.20
2016,08,19,08,37,23.20
2016,08,19,08,38,23.30
2016,08,19,08,39,23.20
2016,08,19,08,40,23.20
2016,08,19,08,41,23.30
2016,08,19,08,42,23.30
2016,08,19,08,43,23.30
2016,08,19,08,44,23.40
2016,08,19,08,45,23.40
2016,08,19,08,46,23.40
2016,08,19,08,47,23.40
2016,08,19,08,48,23.50
2016,08,19,08,49,23.50
2016,08,19,08,50,23.60
2016,08,19,08,51,23.60
2016,08,19,08,52,23.70
2016,08,19,08,53,23.80
2016,08,19,08,54,23.80
2016,08,19,08,55,23.90
2016,08,19,08,56,24.10
2016,08,19,08,57,24.10
2016,08,19,08,58,24.20
2016,08,19,08,59,24.20
2016,08,19,09,00,24.30
2016,08,19,09,01,24.30
2016,08,19,09,02,24.30
2016,08,19,09,03,24.30
2016,08,19,09,04,24.40
2016,08,19,09,05,24.40
2016,08,19,09,06,24.40
2016,08,19,09,07,24.50
2016,08,19,09,08,24.60
2016,08,19,09,09,24.60
2016,08,19,09,10,24.70
2016,08,19,09,11,24.70
2016,08,19,09,12,24.80
2016,08,19,09,13,24.80
2016,08,19,09,14,24.90
2016,08,19,09,15,25.00
2016,08,19,09,16,25.10
2016,08,19,09,17,25.20
2016,08,19,09,18,25.30
2016,08,19,09,19,25.50
2016,08,19,09,20,25.60
2016,08,19,09,21,25.80
2016,08,19,09,22,25.90
2016,08,19,09,23,26.10
2016,08,19,09,24,26.30
2016,08,19,09,25,26.40
2016,08,19,09,26,26.50
2016,08,19,09,27,26.70
2016,08,19,09,28,26.80
2016,08,19,09,29,26.80
2016,08,19,09,30,26.90
2016,08,19,09,31,27.00
2016,08,19,09,32,27.10
2016,08,19,09,33,27.20
2016,08,19,09,34,27.20
2016,08,19,09,35,27.30
2016,08,19,09,36,27.30
2016,08,19,09,37,27.30
2016,08,19,09,38,27.30
2016,08,19,09,39,27.40
2016,08,19,09,40,27.50
2016,08,19,09,41,27.50
2016,08,19,09,42,27.60
2016,08,19,09,43,27.70
2016,08,19,09,44,27.80
2016,08,19,09,45,27.80
2016,08,19,09,46,27.90
2016,08,19,09,47,27.90
2016,08,19,09,48,27.90
2016,08,19,09,49,28.00
2016,08,19,09,50,28.10
2016,08,19,09,51,28.10
2016,08,19,09,52,28.00
2016,08,19,09,53,27.70
2016,08,19,09,54,27.30
2016,08,19,09,55,26.90
2016,08,19,09,56,26.60
2016,08,19,09,57,26.30
2016,08,19,09,58,26.00
2016,08,19,09,59,25.70
2016,08,19,10,00,25.40
2016,08,19,10,01,25.10
2016,08,19,10,02,25.00
2016,08,19,10,03,24.90
2016,08,19,10,04,24.90
2016,08,19,10,05,24.90
2016,08,19,10,06,24.90
2016,08,19,10,07,25.00
2016,08,19,10,08,25.10
2016,08,19,10,09,25.10
2016,08,19,10,10,25.10
2016,08,19,10,11,25.20
2016,08,19,10,12,25.20
2016,08,19,10,13,25.30
2016,08,19,10,14,25.30
2016,08,19,10,15,25.30
2016,08,19,10,16,25.30
2016,08,19,10,17,25.40
2016,08,19,10,18,25.50
2016,08,19,10,19,25.70
2016,08,19,10,20,25.80
2016,08,19,10,21,25.90
2016,08,19,10,22,25.90
2016,08,19,10,23,26.00
2016,08,19,10,24,26.10
2016,08,19,10,25,26.00
2016,08,19,10,26,25.90
2016,08,19,10,27,25.80
2016,08,19,10,28,25.70
2016,08,19,10,29,25.60
2016,08,19,10,30,25.50
2016,08,19,10,31,25.40
2016,08,19,10,32,25.30
2016,08,19,10,33,25.20
2016,08,19,10,34,25.00
2016,08,19,10,35,24.90
2016,08,19,10,36,24.70
2016,08,19,10,37,24.50
2016,08,19,10,38,24.40
2016,08,19,10,39,24.20
2016,08,19,10,40,24.10
2016,08,19,10,41,23.90
2016,08,19,10,42,23.80
2016,08,19,10,43,23.80
2016,08,19,10,44,23.90
2016,08,19,10,45,24.00
2016,08,19,10,46,24.10
2016,08,19,10,47,24.20
2016,08,19,10,48,24.40
2016,08,19,10,49,24.50
2016,08,19,10,50,24.60
2016,08,19,10,51,24.80
2016,08,19,10,52,24.90
2016,08,19,10,53,25.00
2016,08,19,10,54,25.10
2016,08,19,10,55,25.20
2016,08,19,10,56,25.30
2016,08,19,10,57,25.30
2016,08,19,10,58,25.40
2016,08,19,10,59,25.40
2016,08,19,11,00,25.40
2016,08,19,11,01,25.40
2016,08,19,11,02,25.30
2016,08,19,11,03,25.20
2016,08,19,11,04,25.00
2016,08,19,11,05,24.70
2016,08,19,11,06,24.50
2016,08,19,11,07,24.30
2016,08,19,11,08,24.10
2016,08,19,11,09,24.00
2016,08,19,11,10,23.80
2016,08,19,11,11,23.70
2016,08,19,11,12,23.60
2016,08,19,11,13,23.60
2016,08,19,11,14,23.50
2016,08,19,11,15,23.60
2016,08,19,11,16,23.60
2016,08,19,11,17,23.70
2016,08,19,11,18,23.80
2016,08,19,11,19,23.80
2016,08,19,11,20,23.90
2016,08,19,11,21,24.00
2016,08,19,11,22,24.00
2016,08,19,11,23,24.10
2016,08,19,11,24,24.20
2016,08,19,11,25,24.30
2016,08,19,11,26,24.40
2016,08,19,11,27,24.40
2016,08,19,11,28,24.50
2016,08,19,11,29,24.70
2016,08,19,11,30,24.80
2016,08,19,11,31,24.90
2016,08,19,11,32,25.20
2016,08,19,11,33,25.40
2016,08,19,11,34,25.70
2016,08,19,11,35,25.90
2016,08,19,11,36,26.10
2016,08,19,11,37,26.30
2016,08,19,11,38,26.60
2016,08,19,11,39,26.70
2016,08,19,11,40,26.70
2016,08,19,11,41,26.60
2016,08,19,11,42,26.50
2016,08,19,11,43,26.30
2016,08,19,11,44,26.20
2016,08,19,11,45,26.00
2016,08,19,11,46,26.00
2016,08,19,11,47,26.00
2016,08,19,11,48,26.00
2016,08,19,11,49,26.10
2016,08,19,11,50,26.30
2016,08,19,11,51,26.40
2016,08,19,11,52,26.60
2016,08,19,11,53,26.80
2016,08,19,11,54,27.00
2016,08,19,11,55,27.30
2016,08,19,11,56,27.50
2016,08,19,11,57,27.80
2016,08,19,11,58,28.00
2016,08,19,11,59,28.00
2016,08,19,12,00,27.80
2016,08,19,12,01,27.70
2016,08,19,12,02,27.60
2016,08,19,12,03,27.70
2016,08,19,12,04,27.70
2016,08,19,12,05,27.70
2016,08,19,12,06,27.80
2016,08,19,12,07,27.90
2016,08,19,12,08,28.00
2016,08,19,12,09,28.10
2016,08,19,12,10,28.40
2016,08,19,12,11,28.60
2016,08,19,12,12,28.70
2016,08,19,12,13,28.90
2016,08,19,12,14,29.10
2016,08,19,12,15,29.20
2016,08,19,12,16,29.30
2016,08,19,12,17,29.40
2016,08,19,12,18,29.40
2016,08,19,12,19,29.50
2016,08,19,12,20,29.50
2016,08,19,12,21,29.60
2016,08,19,12,22,29.70
2016,08,19,12,23,29.70
2016,08,19,12,24,29.70
2016,08,19,12,25,29.80
2016,08,19,12,26,29.90
2016,08,19,12,27,29.90
2016,08,19,12,28,30.00
2016,08,19,12,29,30.00
2016,08,19,12,30,29.90
2016,08,19,12,31,29.90
2016,08,19,12,32,29.80
2016,08,19,12,33,29.90
2016,08,19,12,34,29.90
2016,08,19,12,35,30.00
2016,08,19,12,36,30.00
2016,08,19,12,37,29.90
2016,08,19,12,38,29.90
2016,08,19,12,39,30.00
2016,08,19,12,40,30.00
2016,08,19,12,41,30.10
2016,08,19,12,42,30.10
2016,08,19,12,43,30.00
2016,08,19,12,44,29.90
2016,08,19,12,45,30.00
2016,08,19,12,46,30.00
2016,08,19,12,47,30.10
2016,08,19,12,48,30.10
2016,08,19,12,49,30.10
2016,08,19,12,50,30.10
2016,08,19,12,51,30.10
2016,08,19,12,52,30.20
2016,08,19,12,53,30.30
2016,08,19,12,54,30.30
2016,08,19,12,55,30.10
2016,08,19,12,56,30.00
2016,08,19,12,57,29.90
2016,08,19,12,58,29.90
2016,08,19,12,59,29.90
2016,08,19,13,00,30.00
2016,08,19,13,01,30.10
2016,08,19,13,02,30.20
2016,08,19,13,03,30.30
2016,08,19,13,04,30.30
2016,08,19,13,05,30.30
2016,08,19,13,06,30.30
2016,08,19,13,07,30.40
2016,08,19,13,08,30.40
2016,08,19,13,09,30.40
2016,08,19,13,10,30.40
2016,08,19,13,11,30.50
2016,08,19,13,12,30.40
2016,08,19,13,13,30.50
2016,08,19,13,14,30.50
2016,08,19,13,15,30.60
2016,08,19,13,16,30.50
2016,08,19,13,17,30.50
2016,08,19,13,18,30.40
2016,08,19,13,19,30.50
2016,08,19,13,20,30.60
2016,08,19,13,21,30.60
2016,08,19,13,22,30.70
2016,08,19,13,23,30.80
2016,08,19,13,24,30.80
2016,08,19,13,25,30.80
2016,08,19,13,26,30.80
2016,08,19,13,27,30.80
2016,08,19,13,28,30.70
2016,08,19,13,29,30.60
2016,08,19,13,30,30.30
2016,08,19,13,31,29.90
2016,08,19,13,32,29.50
2016,08,19,13,33,29.00
2016,08,19,13,34,28.50
2016,08,19,13,35,28.20
2016,08,19,13,36,27.90
2016,08,19,13,37,27.80
2016,08,19,13,38,27.70
2016,08,19,13,39,27.60
2016,08,19,13,40,27.60
2016,08,19,13,41,27.60
2016,08,19,13,42,27.70
2016,08,19,13,43,27.70
2016,08,19,13,44,27.80
2016,08,19,13,45,27.80
2016,08,19,13,46,27.90
2016,08,19,13,47,27.90
2016,08,19,13,48,28.00
2016,08,19,13,49,28.10
2016,08,19,13,50,28.10
2016,08,19,13,51,28.30
2016,08,19,13,52,28.40
2016,08,19,13,53,28.40
2016,08,19,13,54,28.50
2016,08,19,13,55,28.60
2016,08,19,13,56,28.60
2016,08,19,13,57,28.70
2016,08,19,13,58,28.80
2016,08,19,13,59,28.80
2016,08,19,14,00,28.90
2016,08,19,14,01,29.00
2016,08,19,14,02,29.00
2016,08,19,14,03,29.10
2016,08,19,14,04,29.20
2016,08,19,14,05,29.30
2016,08,19,14,06,29.40
2016,08,19,14,07,29.50
2016,08,19,14,08,29.60
2016,08,19,14,09,29.80
2016,08,19,14,10,29.90
2016,08,19,14,11,30.00
2016,08,19,14,12,30.00
2016,08,19,14,13,29.90
2016,08,19,14,14,29.70
2016,08,19,14,15,29.40
2016,08,19,14,16,29.10
2016,08,19,14,17,28.80
2016,08,19,14,18,28.60
2016,08,19,14,19,28.40
2016,08,19,14,20,28.30
2016,08,19,14,21,28.20
2016,08,19,14,22,28.10
2016,08,19,14,23,28.00
2016,08,19,14,24,27.90
2016,08,19,14,25,27.90
2016,08,19,14,26,27.90
2016,08,19,14,27,28.00
2016,08,19,14,28,28.10
2016,08,19,14,29,28.30
2016,08,19,14,30,28.30
2016,08,19,14,31,28.40
2016,08,19,14,32,28.30
2016,08,19,14,33,28.30
2016,08,19,14,34,28.10
2016,08,19,14,35,27.90
2016,08,19,14,36,27.70
2016,08,19,14,37,27.40
2016,08,19,14,38,27.20
2016,08,19,14,39,27.00
2016,08,19,14,40,26.80
2016,08,19,14,41,26.70
2016,08,19,14,42,26.60
2016,08,19,14,43,26.50
2016,08,19,14,44,26.30
2016,08,19,14,45,26.20
2016,08,19,14,46,26.20
2016,08,19,14,47,26.20
2016,08,19,14,48,26.10
2016,08,19,14,49,26.10
2016,08,19,14,50,26.00
2016,08,19,14,51,25.80
2016,08,19,14,52,25.80
2016,08,19,14,53,25.70
2016,08,19,14,54,25.70
2016,08,19,14,55,25.70
2016,08,19,14,56,25.80
2016,08,19,14,57,25.80
2016,08,19,14,58,25.90
2016,08,19,14,59,26.10
2016,08,19,15,00,26.20
2016,08,19,15,01,26.30
2016,08,19,15,02,26.50
2016,08,19,15,03,26.60
2016,08,19,15,04,26.80
2016,08,19,15,05,26.90
2016,08,19,15,06,27.00
2016,08,19,15,07,27.10
2016,08,19,15,08,27.10
2016,08,19,15,09,27.20
2016,08,19,15,10,27.20
2016,08,19,15,11,27.20
2016,08,19,15,12,27.20
2016,08,19,15,13,27.10
2016,08,19,15,14,27.10
2016,08,19,15,15,27.00
2016,08,19,15,16,26.80
2016,08,19,15,17,26.70
2016,08,19,15,18,26.60
2016,08,19,15,19,26.40
2016,08,19,15,20,26.30
2016,08,19,15,21,26.30
2016,08,19,15,22,26.30
2016,08,19,15,23,26.30
2016,08,19,15,24,26.30
2016,08,19,15,25,26.40
2016,08,19,15,26,26.40
2016,08,19,15,27,26.40
2016,08,19,15,28,26.40
2016,08,19,15,29,26.50
2016,08,19,15,30,26.50
2016,08,19,15,31,26.50
2016,08,19,15,32,26.60
2016,08,19,15,33,26.70
2016,08,19,15,34,26.80
2016,08,19,15,35,26.90
2016,08,19,15,36,27.00
2016,08,19,15,37,27.10
2016,08,19,15,38,27.10
2016,08,19,15,39,27.20
2016,08,19,15,40,27.10
2016,08,19,15,41,27.10
2016,08,19,15,42,27.00
2016,08,19,15,43,26.90
2016,08,19,15,44,26.90
2016,08,19,15,45,26.90
2016,08,19,15,46,26.90
2016,08,19,15,47,26.90
2016,08,19,15,48,26.80
2016,08,19,15,49,26.80
2016,08,19,15,50,26.80
2016,08,19,15,51,26.80
2016,08,19,15,52,26.80
2016,08,19,15,53,26.80
2016,08,19,15,54,26.80
2016,08,19,15,55,26.80
2016,08,19,15,56,26.80
2016,08,19,15,57,26.80
2016,08,19,15,58,26.80
2016,08,19,15,59,26.80
2016,08,19,16,00,26.80
2016,08,19,16,01,26.80
2016,08,19,16,02,26.90
2016,08,19,16,03,26.90
2016,08,19,16,04,27.00
2016,08,19,16,05,27.00
2016,08,19,16,06,26.90
2016,08,19,16,07,26.80
2016,08,19,16,08,26.80
2016,08,19,16,09,26.70
2016,08,19,16,10,26.60
2016,08,19,16,11,26.60
2016,08,19,16,12,26.50
2016,08,19,16,13,26.50
2016,08,19,16,14,26.40
2016,08,19,16,15,26.40
2016,08,19,16,16,26.30
2016,08,19,16,17,26.30
2016,08,19,16,18,26.10
2016,08,19,16,19,26.00
2016,08,19,16,20,25.90
2016,08,19,16,21,25.80
2016,08,19,16,22,25.80
2016,08,19,16,23,25.70
2016,08,19,16,24,25.70
2016,08,19,16,25,25.70
2016,08,19,16,26,25.80
2016,08,19,16,27,25.80
2016,08,19,16,28,25.90
2016,08,19,16,29,25.90
2016,08,19,16,30,26.00
2016,08,19,16,31,26.00
2016,08,19,16,32,26.10
2016,08,19,16,33,26.10
2016,08,19,16,34,26.20
2016,08,19,16,35,26.30
2016,08,19,16,36,26.40
2016,08,19,16,37,26.40
2016,08,19,16,38,26.50
2016,08,19,16,39,26.60
2016,08,19,16,40,26.70
2016,08,19,16,41,26.80
2016,08,19,16,42,26.80
2016,08,19,16,43,26.90
2016,08,19,16,44,27.00
2016,08,19,16,45,27.10
2016,08,19,16,46,27.10
2016,08,19,16,47,27.20
2016,08,19,16,48,27.30
2016,08,19,16,49,27.30
2016,08,19,16,50,27.40
2016,08,19,16,51,27.40
2016,08,19,16,52,27.40
2016,08,19,16,53,27.50
2016,08,19,16,54,27.60
2016,08,19,16,55,27.60
2016,08,19,16,56,27.70
2016,08,19,16,57,27.70
2016,08,19,16,58,27.70
2016,08,19,16,59,27.70
2016,08,19,17,00,27.70
2016,08,19,17,01,27.60
2016,08,19,17,02,27.50
2016,08,19,17,03,27.40
2016,08,19,17,04,27.40
2016,08,19,17,05,27.30
2016,08,19,17,06,27.30
2016,08,19,17,07,27.30
2016,08,19,17,08,27.30
2016,08,19,17,09,27.30
2016,08,19,17,10,27.30
2016,08,19,17,11,27.30
2016,08,19,17,12,27.30
2016,08,19,17,13,27.30
2016,08,19,17,14,27.20
2016,08,19,17,15,27.20
2016,08,19,17,16,27.30
2016,08,19,17,17,27.30
2016,08,19,17,18,27.30
2016,08,19,17,19,27.40